GW7343 Weather Reports


time (UTC)temp
C
wind
direction
speed
KPH
gust
KPH
rain 1hr
cm
rain 24hr
cm
rain mn
cm
humidity
%
barometer
mb
20260503175509 16 265 17.7 37.0 0.00 0.00 0.00 35 1010.4
20260503175005 16 267 19.3 37.0 0.00 0.00 0.00 35 1010.5
20260503174511 16 243 17.7 33.8 0.00 0.00 0.00 35 1010.4
20260503174006 16 313 12.9 35.4 0.00 0.00 0.00 36 1010.7
20260503173508 16 238 20.9 35.4 0.00 0.00 0.00 34 1010.7
20260503173022 16 238 14.5 30.6 0.00 0.00 0.00 34 1010.7
20260503172509 17 206 16.1 32.2 0.00 0.00 0.00 37 1010.7
20260503172015 16 286 16.1 30.6 0.00 0.00 0.00 34 1010.7
20260503171526 16 271 16.1 29.0 0.00 0.00 0.00 35 1010.9
20260503171007 16 254 16.1 29.0 0.00 0.00 0.00 37 1011.0
20260503170505 15 253 14.5 29.0 0.00 0.00 0.00 35 1011.1
20260503151005 15 244 19.3 37.0 0.00 0.00 0.00 37 1011.8
20260503150505 15 229 17.7 25.7 0.00 0.00 0.00 37 1011.9
20260503131007 8 236 9.7 20.9 0.00 0.00 0.00 50 1012.6
20260503130508 8 237 12.9 19.3 0.00 0.00 0.00 49 1012.5
20260503110512 1 196 1.6 6.4 0.00 0.00 0.00 66 1013.3
20260503090507 1 223 1.6 4.8 0.00 0.00 0.00 67 1013.7
20260503081542 2 216 1.6 4.8 0.00 0.00 0.00 67 1014.0
20260503081010 2 221 0.0 3.2 0.00 0.00 0.00 66 1014.0
20260503080511 2 221 1.6 3.2 0.00 0.00 0.00 66 1014.1
20260503072510 2 246 3.2 6.4 0.00 0.00 0.00 65 1014.0
20260503072012 2 236 1.6 6.4 0.00 0.00 0.00 65 1014.0
20260503071529 2 242 3.2 4.8 0.00 0.00 0.00 65 1014.0
20260503071007 2 229 1.6 6.4 0.00 0.00 0.00 65 1014.0
20260503070512 2 263 3.2 6.4 0.00 0.00 0.00 65 1014.0
20260503055005 3 229 3.2 9.7 0.00 0.00 0.00 60 1014.5
20260503054531 3 216 4.8 9.7 0.00 0.00 0.00 60 1014.5
20260503054011 3 239 4.8 9.7 0.00 0.00 0.00 60 1014.5
20260503053511 3 224 4.8 9.7 0.00 0.00 0.00 60 1014.6
20260503053032 3 235 6.4 9.7 0.00 0.00 0.00 60 1014.5
20260503052509 3 213 4.8 9.7 0.00 0.00 0.00 60 1014.6
20260503052018 3 255 3.2 8.0 0.00 0.00 0.00 60 1014.7
20260503051516 3 244 3.2 9.7 0.00 0.00 0.00 60 1014.7
20260503051006 3 223 3.2 9.7 0.00 0.00 0.00 60 1014.7
20260503050508 3 227 3.2 9.7 0.00 0.00 0.00 60 1014.7
20260503050026 3 245 3.2 9.7 0.00 0.00 0.00 60 1014.8
20260503045514 3 225 4.8 6.4 0.00 0.00 0.00 60 1014.8
20260503045011 3 225 3.2 4.8 0.00 0.00 0.00 60 1014.8
20260503044529 3 239 1.6 4.8 0.00 0.00 0.00 60 1014.9
20260503044009 3 233 3.2 4.8 0.00 0.00 0.00 60 1014.9
20260503043506 3 234 1.6 4.8 0.00 0.00 0.00 60 1014.8
20260503043019 3 243 3.2 4.8 0.00 0.00 0.00 60 1014.8
20260503042508 3 215 1.6 4.8 0.00 0.00 0.00 60 1014.9
20260503042013 3 231 3.2 6.4 0.00 0.00 0.00 61 1014.9
20260503041528 3 236 3.2 6.4 0.00 0.00 0.00 62 1015.0
20260503041008 3 233 1.6 4.8 0.00 0.00 0.00 63 1015.0
20260503040516 3 239 1.6 3.2 0.00 0.00 0.00 63 1015.0
20260503040030 3 234 0.0 1.6 0.00 0.00 0.00 63 1015.1
20260503035506 3 234 0.0 1.6 0.00 0.00 0.00 62 1015.1
20260503035011 3 234 1.6 3.2 0.00 0.00 0.00 62 1015.1
20260503034525 3 234 1.6 3.2 0.00 0.00 0.00 62 1015.2
20260503034010 3 234 0.0 3.2 0.00 0.00 0.00 62 1015.2
20260503033511 3 234 0.0 3.2 0.00 0.00 0.00 61 1015.2
20260503033016 3 234 1.6 3.2 0.00 0.00 0.00 61 1015.3
20260503032506 3 224 1.6 3.2 0.00 0.00 0.00 62 1015.4
20260503032006 3 224 0.0 3.2 0.00 0.00 0.00 62 1015.4
20260503031516 3 224 0.0 3.2 0.00 0.00 0.00 63 1015.3
20260503031007 3 224 0.0 4.8 0.00 0.00 0.00 63 1015.3
20260503030510 3 223 1.6 4.8 0.00 0.00 0.00 63 1015.3
20260503030004 2 213 1.6 4.8 0.00 0.00 0.00 64 1015.4
20260503025503 2 223 1.6 3.2 0.00 0.00 0.00 66 1015.5
20260503025005 2 234 1.6 3.2 0.00 0.00 0.00 66 1015.5
20260503024511 2 236 1.6 3.2 0.00 0.00 0.00 67 1015.5
20260503024003 2 236 1.6 1.6 0.00 0.00 0.00 67 1015.6
20260503023509 2 236 1.6 3.2 0.00 0.00 0.00 68 1015.7
20260503023019 2 236 1.6 3.2 0.00 0.00 0.00 68 1015.6
20260503022507 2 237 1.6 1.6 0.00 0.00 0.00 69 1015.7
20260503022004 2 236 1.6 1.6 0.00 0.00 0.00 68 1015.6
20260503021504 2 237 0.0 1.6 0.00 0.00 0.00 68 1015.6
20260503021006 2 236 0.0 1.6 0.00 0.00 0.00 67 1015.6
20260503020506 2 236 1.6 3.2 0.00 0.00 0.00 67 1015.6
20260503020016 3 236 1.6 3.2 0.00 0.00 0.00 66 1015.6
20260503015505 3 271 1.6 1.6 0.00 0.00 0.00 65 1015.6
20260503015006 3 271 0.0 1.6 0.00 0.00 0.00 64 1015.7
20260503014517 3 271 0.0 1.6 0.00 0.00 0.00 63 1015.7
20260503014007 3 271 0.0 3.2 0.00 0.00 0.00 63 1015.6
20260503013503 3 271 0.0 3.2 0.00 0.00 0.00 60 1015.6
20260503013008 4 271 0.0 3.2 0.00 0.00 0.00 60 1015.5
20260503012507 4 271 0.0 3.2 0.00 0.00 0.00 59 1015.4
20260503012009 4 271 0.0 3.2 0.00 0.00 0.00 58 1015.4
20260503011520 5 271 0.0 1.6 0.00 0.00 0.00 57 1015.4
20260503011008 5 271 0.0 1.6 0.00 0.00 0.00 56 1015.4
20260503010508 5 271 0.0 1.6 0.00 0.00 0.00 55 1015.4
20260503010020 5 271 0.0 1.6 0.00 0.00 0.00 53 1015.4
20260503005503 6 271 0.0 3.2 0.00 0.00 0.00 52 1015.4
20260503005005 6 271 0.0 3.2 0.00 0.00 0.00 51 1015.4
20260503004513 6 270 0.0 3.2 0.00 0.00 0.00 51 1015.4
20260503004007 6 271 0.0 1.6 0.00 0.00 0.00 50 1015.4
20260503003507 7 271 0.0 3.2 0.00 0.00 0.00 48 1015.4
20260503003039 7 270 0.0 3.2 0.00 0.00 0.00 46 1015.3
20260503002507 7 271 0.0 1.6 0.00 0.00 0.00 46 1015.2
20260503002008 7 271 0.0 3.2 0.00 0.00 0.00 45 1015.3
20260503001508 7 271 0.0 3.2 0.00 0.00 0.00 43 1015.3
20260503001004 7 271 0.0 4.8 0.00 0.00 0.00 43 1015.3
20260503000506 7 271 1.6 6.4 0.00 0.00 0.00 42 1015.4
20260503000016 7 341 1.6 9.7 0.00 0.00 0.00 42 1015.4
20260502235510 8 304 4.8 9.7 0.00 0.00 0.00 42 1015.4
20260502235008 8 271 3.2 4.8 0.00 0.00 0.00 42 1015.5
20260502234523 8 316 1.6 8.0 0.00 0.00 0.00 42 1015.4
20260502234009 8 313 1.6 8.0 0.00 0.00 0.00 41 1015.5
20260502233503 8 321 3.2 8.0 0.00 0.00 0.00 42 1015.5
20260502233013 8 333 4.8 9.7 0.00 0.00 0.00 41 1015.5
20260502232507 8 311 4.8 9.7 0.00 0.00 0.00 42 1015.5
20260502232009 8 335 1.6 11.3 0.00 0.00 0.00 41 1015.5
20260502231520 8 317 6.4 12.9 0.00 0.00 0.00 41 1015.5
20260502231008 8 336 4.8 16.1 0.00 0.00 0.00 40 1015.5
20260502230508 8 329 6.4 16.1 0.00 0.00 0.00 41 1015.4
20260502230031 8 352 3.2 14.5 0.00 0.00 0.00 40 1015.5
20260502225505 8 323 4.8 11.3 0.00 0.00 0.00 41 1015.5
20260502225007 8 272 4.8 12.9 0.00 0.00 0.00 40 1015.5
20260502224513 8 306 6.4 14.5 0.00 0.00 0.00 41 1015.5
20260502224005 8 261 6.4 16.1 0.00 0.00 0.00 40 1015.5
20260502223511 8 316 4.8 16.1 0.00 0.00 0.00 41 1015.5
20260502223023 8 333 9.7 16.1 0.00 0.00 0.00 42 1015.6
20260502222508 8 322 6.4 14.5 0.00 0.00 0.00 43 1015.6
20260502222012 8 352 4.8 14.5 0.00 0.00 0.00 41 1015.5
20260502221511 8 284 3.2 16.1 0.00 0.00 0.00 41 1015.6
20260502221007 8 291 4.8 16.1 0.00 0.00 0.00 42 1015.6
20260502220509 8 319 8.0 16.1 0.00 0.00 0.00 40 1015.5
20260502220016 8 320 4.8 12.9 0.00 0.00 0.00 43 1015.6
20260502215512 8 325 4.8 17.7 0.00 0.00 0.00 40 1015.6
20260502215009 8 329 9.7 17.7 0.00 0.00 0.00 41 1015.6
20260502214524 8 346 3.2 14.5 0.00 0.00 0.00 43 1015.6
20260502214006 8 339 4.8 14.5 0.00 0.00 0.00 41 1015.6
20260502213504 8 329 4.8 14.5 0.00 0.00 0.00 42 1015.5
20260502213015 8 281 6.4 12.9 0.00 0.00 0.00 43 1015.6
20260502212507 8 351 4.8 12.9 0.00 0.00 0.00 42 1015.6
20260502212013 8 249 4.8 14.5 0.00 0.00 0.00 43 1015.6
20260502211524 8 328 6.4 17.7 0.00 0.00 0.00 42 1015.6
20260502211007 8 334 4.8 17.7 0.00 0.00 0.00 42 1015.6
20260502210510 8 332 8.0 17.7 0.00 0.00 0.00 42 1015.6
20260502210022 8 342 8.0 16.1 0.00 0.00 0.00 42 1015.6
20260502205506 8 288 8.0 16.1 0.00 0.00 0.00 41 1015.6
20260502205006 8 9 6.4 17.7 0.00 0.00 0.00 39 1015.7
20260502204515 9 250 8.0 19.3 0.00 0.00 0.00 40 1015.7
20260502204007 8 286 8.0 19.3 0.00 0.00 0.00 42 1015.7
20260502203510 8 301 9.7 19.3 0.00 0.00 0.00 41 1015.7
20260502203026 8 296 4.8 17.7 0.00 0.00 0.00 42 1015.8
20260502202507 8 258 11.3 19.3 0.00 0.00 0.00 41 1015.8
20260502202007 8 303 9.7 19.3 0.00 0.00 0.00 40 1015.8
20260502201509 8 293 9.7 24.1 0.00 0.00 0.00 40 1015.9
20260502201008 8 352 8.0 24.1 0.00 0.00 0.00 40 1015.9
20260502200510 8 305 8.0 24.1 0.00 0.00 0.00 42 1016.0
20260502200026 8 320 4.8 17.7 0.00 0.00 0.00 41 1016.0
20260502195510 8 275 6.4 17.7 0.00 0.00 0.00 40 1016.1
20260502195010 8 317 9.7 17.7 0.00 0.00 0.00 42 1016.2
20260502194529 8 349 6.4 16.1 0.00 0.00 0.00 41 1016.2
20260502194008 8 350 8.0 17.7 0.00 0.00 0.00 41 1016.2
20260502193506 8 298 6.4 17.7 0.00 0.00 0.00 39 1016.3
20260502193013 8 342 6.4 14.5 0.00 0.00 0.00 42 1016.4
20260502192506 8 276 8.0 16.1 0.00 0.00 0.00 41 1016.4
20260502192012 8 296 4.8 19.3 0.00 0.00 0.00 40 1016.5
20260502191525 8 320 11.3 19.3 0.00 0.00 0.00 39 1016.6
20260502191009 8 325 9.7 19.3 0.00 0.00 0.00 41 1016.6
20260502190513 8 300 9.7 19.3 0.00 0.00 0.00 40 1016.6
20260502190026 8 360 6.4 19.3 0.00 0.00 0.00 40 1016.6
20260502185510 8 271 6.4 16.1 0.00 0.00 0.00 42 1016.6
20260502185007 8 260 8.0 16.1 0.00 0.00 0.00 40 1016.7
20260502184520 8 321 3.2 17.7 0.00 0.00 0.00 39 1016.6
20260502184008 8 360 9.7 17.7 0.00 0.00 0.00 39 1016.7
20260502183509 8 250 9.7 16.1 0.00 0.00 0.00 40 1016.6
20260502183023 8 304 6.4 14.5 0.00 0.00 0.00 41 1016.7
20260502182509 8 338 6.4 14.5 0.00 0.00 0.00 40 1016.7
20260502182013 8 338 6.4 17.7 0.00 0.00 0.00 41 1016.7
20260502181511 8 294 6.4 17.7 0.00 0.00 0.00 41 1016.8
20260502181010 8 279 11.3 17.7 0.00 0.00 0.00 39 1016.8
20260502180506 8 286 4.8 17.7 0.00 0.00 0.00 38 1016.9